Location: Unspecified
(27.8000°N, 0.0000°E)
Time: 03:41:13
(UTC+00:00)

Orbcomm D2 (FM30) - Visible Passes

Search period start: 04 April 2026 00:00
Search period end: 14 April 2026 00:00
Orbit: 761 x 769 km, 45.0° (Epoch: 28 March)

Date Brightness Start Highest point End Pass type
(mag) Time Alt. Az. Time Alt. Az. Time Alt. Az.
4 Apr 10.7 02:44:20 12° N 02:44:20 12° N 02:45:29 10° NNE visible
4 Apr 10.4 04:27:16 10° NNW 04:30:20 15° NNE 04:33:24 10° NE visible
5 Apr 10.5 03:47:04 10° NNW 03:49:44 14° N 03:52:23 10° NE visible
6 Apr 10.5 03:07:28 11° N 03:09:06 13° N 03:11:23 10° NNE visible
6 Apr 9.9 04:51:10 10° NNW 04:55:45 28° NNE 05:00:20 10° E visible
7 Apr 10.8 02:29:05 12° N 02:29:05 12° N 02:30:29 10° NNE visible
7 Apr 10.1 04:11:01 10° NNW 04:15:15 23° NNE 04:19:29 10° ENE visible
8 Apr 10.3 03:30:53 10° NNW 03:34:44 20° NNE 03:38:35 10° ENE visible
8 Apr 8.4 05:15:15 10° NW 05:20:38 71° NE 05:25:59 10° ESE visible
9 Apr 10.3 02:52:45 15° N 02:54:10 17° NNE 02:57:37 10° ENE visible
9 Apr 8.7 04:35:00 10° NW 04:40:15 54° NE 04:45:31 10° ESE visible
9 Apr 10.5 20:49:03 10° SW 20:49:08 10° SW 20:49:08 10° SW visible
10 Apr 10.7 02:14:47 14° NNE 02:14:47 14° NNE 02:16:36 10° NE visible
10 Apr 9.1 03:54:56 11° NW 03:59:52 42° NNE 04:04:57 10° ESE visible
10 Apr 8.7 20:08:56 10° SSW 20:12:35 38° S 20:12:35 38° S visible
11 Apr 9.5 03:17:13 24° NNW 03:19:27 33° NNE 03:24:17 10° E visible
11 Apr 8.2 04:59:35 10° WNW 05:04:45 50° SW 05:09:56 10° SSE visible
11 Apr 8.5 19:28:58 10° SSW 19:33:50 36° SE 19:36:03 25° E visible
11 Apr 9.9 21:13:55 10° WSW 21:16:18 24° W 21:16:18 24° W visible
12 Apr 9.9 02:39:48 26° NE 02:39:48 26° NE 02:43:31 10° E visible
12 Apr 7.9 04:20:00 15° WNW 04:24:29 68° SW 04:29:49 10° SE visible
12 Apr 9.0 18:49:11 10° S 18:53:36 27° SE 18:58:02 10° ENE visible
12 Apr 8.6 20:33:21 10° WSW 20:38:34 53° NW 20:39:37 46° N visible
13 Apr 7.9 03:42:55 54° NW 03:44:11 90° E 03:49:34 10° SE visible
13 Apr 8.2 19:52:52 10° WSW 19:58:12 70° NW 20:02:41 15° NE visible
13 Apr 10.4 21:40:16 10° WNW 21:42:54 18° NW 21:42:54 18° NW visible
